Location: Mattawa
(46.3175°N, 78.7022°W)
Time: 06:26:51
(UTC-04:00)

ISS - Visible Passes

Search period start: 21 October 2019 00:00
Search period end: 31 October 2019 00:00
Orbit: 411 x 421 km, 51.6° (Epoch: 21 October)

Date Brightness Start Highest point End Pass type
(mag) Time Alt. Az. Time Alt. Az. Time Alt. Az.
22 Oct -0.5 07:02:45 10° SSE 07:04:15 12° SE 07:05:45 10° ESE visible
24 Oct -1.8 07:00:30 10° SSW 07:03:28 29° SE 07:06:27 10° E visible
25 Oct -1.1 06:12:36 10° S 06:15:01 19° SE 06:17:27 10° E visible
26 Oct -0.8 05:25:34 10° SSE 05:26:37 11° SE 05:27:49 10° ESE visible
26 Oct -3.5 06:59:28 10° SW 07:02:49 69° SSE 07:06:10 10° ENE visible
27 Oct -2.7 06:12:29 22° SSW 06:14:15 43° SE 06:17:28 10° ENE visible
28 Oct -1.7 05:26:18 26° ESE 05:26:18 26° ESE 05:28:38 10° E visible
28 Oct -3.6 06:59:13 12° WSW 07:02:18 60° NNW 07:05:38 10° ENE visible
29 Oct -3.9 06:12:52 52° WSW 06:13:37 85° NNW 06:17:00 10° ENE visible
30 Oct -1.8 05:26:26 30° ENE 05:26:26 30° ENE 05:28:19 10° ENE visible
30 Oct -3.0 06:59:20 14° WNW 07:01:52 38° NNW 07:05:03 10° ENE visible
